This is the latest recevied weather packets stored in our database for station/object W3TMB. If no packets are shown the sender has not sent any weather packets the latest 10 day(s).
| Time | Temp. | Humidity | Pressure | Rain* | Wind** | Luminosity | Snow |
|---|---|---|---|---|---|---|---|
| 1778083828 | 14.44° C | 99% | 1004.1 hPa | 0 mm | - | 124 W/m² | - |
| 1778083526 | 14.44° C | 99% | 1004.5 hPa | 0 mm | - | 99 W/m² | - |
| 1778083222 | 15° C | 99% | 1004.4 hPa | 0 mm | - | 117 W/m² | - |
| 1778082921 | 15° C | 99% | 1004.1 hPa | 0 mm | - | 147 W/m² | - |
| 1778081812 | 15° C | 99% | 1004.3 hPa | 0 mm | - | 177 W/m² | - |
| 1778081509 | 14.44° C | 99% | 1004.2 hPa | 0 mm | - | 148 W/m² | - |
| 1778081206 | 15° C | 99% | 1004.2 hPa | 0 mm | - | 77 W/m² | - |
| 1778080904 | 14.44° C | 99% | 1004.3 hPa | 0 mm | - | 62 W/m² | - |
| 1778080603 | 14.44° C | 99% | 1004.3 hPa | 0 mm | - | 54 W/m² | - |
| 1778080299 | 14.44° C | 99% | 1004.1 hPa | 0 mm | - | 54 W/m² | - |
| 1778079996 | 14.44° C | 99% | 1004.1 hPa | 0 mm | - | 55 W/m² | - |
| 1778079693 | 14.44° C | 99% | 1004.1 hPa | 0 mm | - | 29 W/m² | - |
| 1778079390 | 14.44° C | 99% | 1004.3 hPa | 0 mm | - | 61 W/m² | - |
| 1778079086 | 14.44° C | 99% | 1004.3 hPa | 1.27 mm | - | 35 W/m² | - |
| 1778078784 | 14.44° C | 99% | 1004.3 hPa | 1.27 mm | - | 41 W/m² | - |
| 1778078480 | 14.44° C | 99% | 1004.1 hPa | 0 mm | - | 48 W/m² | - |
| 1778078178 | 14.44° C | 99% | 1004.1 hPa | 1.78 mm | - | 39 W/m² | - |
| 1778077876 | 13.89° C | 99% | 1004.1 hPa | 0 mm | - | 61 W/m² | - |
| 1778077574 | 13.89° C | 99% | 1004.4 hPa | 1.27 mm | - | 48 W/m² | - |
| 1778077272 | 14.44° C | 99% | 1004.1 hPa | 1.27 mm | - | 53 W/m² | - |
| 1778076969 | 14.44° C | 99% | 1004 hPa | 0 mm | - | 61 W/m² | - |
| 1778076667 | 13.89° C | 99% | 1003.9 hPa | 0 mm | - | 43 W/m² | - |
| 1778076365 | 13.89° C | 99% | 1004.1 hPa | 0 mm | - | 45 W/m² | - |
| 1778076062 | 13.89° C | 99% | 1004.2 hPa | 1.78 mm | - | 45 W/m² | - |
| 1778075758 | 13.89° C | 99% | 1004 hPa | 1.78 mm | - | 43 W/m² | - |
* Rain latest hour (hover to see other rain measurements)
** Current wind speed in m/s (hover to see current wind gust speed)